Location: Beuerbach
(48.1459°N, 10.9174°E)
Time: 08:36:08
(UTC+00:00)

Meteor 2-5 Rocket - Pass Details

Date: 23 May 2024
Orbit: 832 x 911 km, 81.2° (Epoch: 15 June)

Event Time Altitude Azimuth Distance (km) Brightness Sun altitude
Exits shadow 02:43:02 - 215° (SW) 2,823 5.8 -6.7°
Reaches altitude 10° 02:43:43 10° 217° (SW) 2,579 5.6 -6.7°
Maximum altitude 02:49:19 44° 289° (WNW) 1,237 4.4 -6.0°
Drops below altitude 10° 02:55:01 10° 1° (N) 2,611 6.9 -5.2°
Sets 02:57:38 0° 8° (N) 3,555 7.7 -4.9°
